Silver Bay, MN

6:51 PM CST on November 23, 2017 (GMT -0600)
Silver Bay Municipal

Weather History for KBFW - June, 2012

Change the Weather History Date:

Tuesday, June 5, 2012

  Actual Average Record
Temperature  
Mean Temperature 52 °F -  
Max Temperature 66 °F 63 °F 77 °F (2003)
Min Temperature 39 °F 40 °F 26 °F (1998)
Degree Days  
Heating Degree Days 12    
Growing Degree Days 2 (Base 50)    
Moisture  
Dew Point 43 °F    
Average Humidity 64    
Maximum Humidity 93    
Minimum Humidity 43    
Precipitation  
Precipitation 0.00 in - - ()
Sea Level Pressure  
Sea Level Pressure 30.04 in    
Wind  
Wind Speed 3 mph (ENE)    
Max Wind Speed 12 mph    
Max Gust Speed 18 mph    
Visibility 10 miles    
Events      
Averages and records for this station are not official NWS values.
T = Trace of Precipitation, MM = Missing Value Source: NWS Daily Summary

Daily Weather History Graph

Daily Weather History Graph

Search for Another Location

Airport or City:

Trip Planner

Search our weather history database for the weather conditions in past years. The results will help you decide how hot, cold, wet, or windy it might be!

Date:

Astronomy

Jun. 05, 2012 Rise Set
Actual Time 5:11 AM CDT 8:57 PM CDT
Civil Twilight 4:31 AM CDT 9:37 PM CDT
Nautical Twilight 3:38 AM CDT 10:30 PM CDT
Astronomical Twilight 2:21 AM CDT 11:48 PM CDT
Moon 10:19 PM CDT (6/5) 6:24 AM CDT (6/5)
Length of Visible Light 17h 05m
Length of Day
15h 46m
Full, 98% of the Moon is Illuminated
Jun 5
Full
Jun 11
Last Quarter
Jun 19
New
Jun 26
First Quarter
Jul 3
Full

Hourly Weather History & Observations

Time (CDT) Temp. Dew Point Humidity Pressure Visibility Wind Dir Wind Speed Gust Speed Precip Events Conditions
12:14 AM 44.6 °F 41.0 °F 87% 29.99 in 10.0 mi Calm Calm - N/A   Clear
12:34 AM 42.8 °F 39.2 °F 87% 29.98 in 10.0 mi Calm Calm - N/A   Clear
12:54 AM 42.8 °F 39.2 °F 87% 29.99 in 10.0 mi Calm Calm - N/A   Clear
1:14 AM 42.8 °F 41.0 °F 93% 29.99 in 10.0 mi Calm Calm - N/A   Clear
1:34 AM 42.8 °F 39.2 °F 87% 29.99 in 10.0 mi Calm Calm - N/A   Clear
1:54 AM 42.8 °F 39.2 °F 87% 29.99 in 10.0 mi Calm Calm - N/A   Clear
2:14 AM 41.0 °F 37.4 °F 87% 30.00 in 10.0 mi Calm Calm - N/A   Clear
2:34 AM 41.0 °F 37.4 °F 87% 30.01 in 10.0 mi Calm Calm - N/A   Clear
2:54 AM 42.8 °F 39.2 °F 87% 30.01 in 10.0 mi Calm Calm - N/A   Clear
3:14 AM 42.8 °F 39.2 °F 87% 30.01 in 10.0 mi Calm Calm - N/A   Clear
3:34 AM 41.0 °F 37.4 °F 87% 30.01 in 10.0 mi Calm Calm - N/A   Scattered Clouds
3:54 AM 41.0 °F 37.4 °F 87% 30.02 in 10.0 mi Calm Calm - N/A   Scattered Clouds
4:14 AM 41.0 °F 37.4 °F 87% 30.02 in 10.0 mi Calm Calm - N/A   Scattered Clouds
4:34 AM 41.0 °F 37.4 °F 87% 30.03 in 10.0 mi Calm Calm - N/A   Clear
5:14 AM 39.2 °F 35.6 °F 87% 30.03 in 10.0 mi Calm Calm - N/A   Scattered Clouds
5:34 AM 39.2 °F 37.4 °F 93% 30.04 in 10.0 mi Calm Calm - N/A   Scattered Clouds
5:54 AM 42.8 °F 39.2 °F 87% 30.04 in 10.0 mi Calm Calm - N/A   Clear
6:14 AM 44.6 °F 41.0 °F 87% 30.04 in 10.0 mi Calm Calm - N/A   Scattered Clouds
6:34 AM 48.2 °F 44.6 °F 87% 30.04 in 10.0 mi Calm Calm - N/A   Scattered Clouds
7:14 AM 53.6 °F 48.2 °F 82% 30.04 in 10.0 mi Calm Calm - N/A   Clear
7:34 AM 57.2 °F 46.4 °F 67% 30.05 in 10.0 mi NE 3.5 mph - N/A   Clear
7:54 AM 59.0 °F 46.4 °F 63% 30.04 in 10.0 mi Calm Calm - N/A   Clear
8:14 AM 60.8 °F 44.6 °F 55% 30.05 in 10.0 mi ENE 3.5 mph - N/A   Clear
8:34 AM 60.8 °F 42.8 °F 52% 30.05 in 10.0 mi ENE 8.1 mph - N/A   Clear
8:54 AM 62.6 °F 44.6 °F 52% 30.04 in 10.0 mi NE 4.6 mph - N/A   Clear
9:14 AM 64.4 °F 44.6 °F 49% 30.05 in 10.0 mi ENE 4.6 mph - N/A   Clear
9:34 AM 62.6 °F 44.6 °F 52% 30.05 in 10.0 mi East 8.1 mph - N/A   Clear
9:54 AM 64.4 °F 44.6 °F 49% 30.06 in 10.0 mi East 6.9 mph - N/A   Clear
10:14 AM 64.4 °F 44.6 °F 49% 30.06 in 10.0 mi East 8.1 mph - N/A   Clear
10:34 AM 64.4 °F 44.6 °F 49% 30.06 in 10.0 mi East 6.9 mph - N/A   Clear
10:54 AM 64.4 °F 44.6 °F 49% 30.07 in 10.0 mi East 9.2 mph - N/A   Clear
11:14 AM 64.4 °F 44.6 °F 49% 30.06 in 10.0 mi East 6.9 mph - N/A   Clear
11:34 AM 64.4 °F 44.6 °F 49% 30.06 in 10.0 mi East 10.4 mph - N/A   Clear
11:54 AM 64.4 °F 44.6 °F 49% 30.07 in 10.0 mi ENE 9.2 mph - N/A   Clear
12:14 PM 66.2 °F 44.6 °F 46% 30.07 in 10.0 mi East 6.9 mph - N/A   Clear
12:34 PM 66.2 °F 42.8 °F 43% 30.07 in 10.0 mi East 8.1 mph - N/A   Clear
12:54 PM 66.2 °F 44.6 °F 46% 30.06 in 10.0 mi East 8.1 mph - N/A   Clear
1:16 PM 66.2 °F 44.6 °F 46% 30.07 in 10.0 mi East 9.2 mph - N/A   Clear
1:34 PM 66.2 °F 42.8 °F 43% 30.06 in 10.0 mi East 9.2 mph - N/A   Clear
1:54 PM 66.2 °F 44.6 °F 46% 30.06 in 10.0 mi East 8.1 mph - N/A   Clear
2:14 PM 66.2 °F 44.6 °F 46% 30.06 in 10.0 mi East 9.2 mph - N/A   Clear
2:34 PM 66.2 °F 44.6 °F 46% 30.05 in 10.0 mi ENE 8.1 mph - N/A   Clear
2:55 PM 66.2 °F 42.8 °F 43% 30.05 in 10.0 mi East 9.2 mph - N/A   Clear
3:14 PM 66.2 °F 42.8 °F 43% 30.05 in 10.0 mi East 10.4 mph - N/A   Clear
3:34 PM 66.2 °F 44.6 °F 46% 30.05 in 10.0 mi ENE 10.4 mph - N/A   Clear
3:54 PM 64.4 °F 44.6 °F 49% 30.04 in 10.0 mi East 9.2 mph 16.1 mph N/A   Clear
4:14 PM 64.4 °F 44.6 °F 49% 30.04 in 10.0 mi East 11.5 mph - N/A   Clear
4:34 PM 64.4 °F 44.6 °F 49% 30.04 in 10.0 mi East 9.2 mph 18.4 mph N/A   Clear
4:54 PM 64.4 °F 44.6 °F 49% 30.04 in 10.0 mi East 11.5 mph - N/A   Clear
5:14 PM 62.6 °F 44.6 °F 52% 30.03 in 10.0 mi East 10.4 mph - N/A   Clear
5:34 PM 60.8 °F 44.6 °F 55% 30.03 in 10.0 mi East 10.4 mph - N/A   Clear
5:54 PM 62.6 °F 44.6 °F 52% 30.03 in 10.0 mi East 10.4 mph - N/A   Clear
6:14 PM 62.6 °F 44.6 °F 52% 30.03 in 10.0 mi East 9.2 mph - N/A   Clear
6:34 PM 60.8 °F 44.6 °F 55% 30.03 in 10.0 mi East 10.4 mph - N/A   Clear
6:54 PM 60.8 °F 42.8 °F 52% 30.03 in 10.0 mi East 8.1 mph - N/A   Clear
7:14 PM 60.8 °F 41.0 °F 48% 30.03 in 10.0 mi East 9.2 mph - N/A   Clear
7:34 PM 60.8 °F 41.0 °F 48% 30.04 in 10.0 mi East 5.8 mph - N/A   Clear
7:54 PM 57.2 °F 42.8 °F 59% 30.03 in 10.0 mi ENE 4.6 mph - N/A   Clear
8:14 PM 57.2 °F 42.8 °F 59% 30.04 in 10.0 mi ENE 3.5 mph - N/A   Clear
8:34 PM 55.4 °F 42.8 °F 63% 30.04 in 10.0 mi ENE 4.6 mph - N/A   Clear
8:54 PM 55.4 °F 42.8 °F 63% 30.04 in 10.0 mi Calm Calm - N/A   Clear
9:14 PM 53.6 °F 42.8 °F 67% 30.04 in 10.0 mi Calm Calm - N/A   Clear
9:34 PM 51.8 °F 42.8 °F 71% 30.04 in 10.0 mi NNE 3.5 mph - N/A   Clear
9:54 PM 51.8 °F 42.8 °F 71% 30.04 in 10.0 mi Calm Calm - N/A   Clear
10:14 PM 51.8 °F 44.6 °F 76% 30.05 in 10.0 mi NE 3.5 mph - N/A   Clear
10:34 PM 51.8 °F 44.6 °F 76% 30.04 in 10.0 mi NE 4.6 mph - N/A   Clear
10:54 PM 51.8 °F 42.8 °F 71% 30.05 in 10.0 mi Calm Calm - N/A   Clear
11:34 PM 50.0 °F 42.8 °F 76% 30.05 in 10.0 mi North 3.5 mph - N/A   Clear
11:54 PM 50.0 °F 42.8 °F 76% 30.05 in 10.0 mi North 3.5 mph - N/A   Scattered Clouds